QPF
0.00 0.00 0.00 0.00 0.00 0.00 0.00 0.00 0.00 0.00 0.00 0.00 0.00 0.00 0.00 0.00 0.00 0.00 0.00 0.00 0.00 0.00 0.00 0.00 0.00 0.00 0.00 0.00 0.00 0.01 0.01 0.00 0.00 0.00 0.01 0.03 0.03 0.02 0.02 0.01 0.00 0.00 0.00 0.00
0.00 0.00 0.00 0.00 0.00 0.00 0.00 0.00 0.00 0.00 0.00 0.00 0.00 0.00 0.00 0.00 0.00 0.00 0.00 0.00 0.00 0.00 0.00 0.00 0.00 0.00 0.00 0.00 0.00 0.00 0.00 0.00 0.00 0.00 0.01 0.01 0.01 0.01 0.01 0.00 0.00 0.00 0.00 0.00
0.00 0.00 0.00 0.00 0.00 0.00 0.00 0.00 0.00 0.00 0.00 0.00 0.00 0.00 0.00 0.00 0.00 0.00 0.00 0.00 0.00 0.00 0.00 0.00 0.00 0.00 0.00 0.00 0.00 0.00 0.00 0.00 0.01 0.00 0.00 0.00 0.01 0.05 0.08 0.02 0.00 0.00 0.00 0.00
0.00 0.00 0.00 0.00 0.00 0.00 0.00 0.00 0.00 0.00 0.00 0.00 0.00 0.00 0.00 0.00 0.00 0.00 0.00 0.00 0.00 0.00 0.00 0.00 0.00 0.00 0.00 0.00 0.00 0.00 0.00 0.01 0.01 0.01 0.02 0.02 0.03 0.03 0.01 0.00 0.00 0.00 0.00 0.00
0.00 0.00 0.00 0.00 0.00 0.00 0.00 0.00 0.00 0.00 0.00 0.00 0.00 0.00 0.00 0.00 0.00 0.00 0.00 0.00 0.00 0.00 0.00 0.00 0.00 0.00 0.00 0.00 0.00 0.00 0.00 0.00 0.01 0.00 0.00 0.00 0.00 0.00 0.00 0.00 0.00 0.00 0.00 0.00
0.00 0.00 0.00 0.00 0.00 0.00 0.00 0.00 0.00 0.00 0.00 0.00 0.00 0.00 0.00 0.00 0.00 0.00 0.00 0.00 0.00 0.00 0.00 0.00 0.00 0.00 0.00 0.00 0.00 0.00 0.01 0.01 0.00 0.00 0.00 0.00 0.00 0.00 0.00 0.00 0.00 0.00 0.00 0.00
0.00 0.00 0.00 0.00 0.00 0.00 0.00 0.00 0.00 0.00 0.00 0.00 0.00 0.00 0.00 0.00 0.00 0.00 0.00 0.00 0.00 0.00 0.00 0.00 0.00 0.00 0.00 0.00 0.00 0.00 0.00 0.01 0.00 0.00 0.00 0.00 0.00 0.00 0.00 0.00 0.00 0.00 0.00 0.00
0.00 0.00 0.00 0.00 0.00 0.00 0.00 0.00 0.00 0.00 0.00 0.00 0.00 0.00 0.00 0.00 0.00 0.00 0.00 0.00 0.00 0.00 0.00 0.00 0.00 0.00 0.00 0.00 0.00 0.00 0.00 0.00 0.00 0.00 0.00 0.00 0.00 0.00 0.00 0.00 0.00 0.00 0.00 0.00
0.00 0.00 0.00 0.00 0.00 0.00 0.00 0.00 0.00 0.00 0.00 0.00 0.00 0.00 0.00 0.00 0.00 0.00 0.00 0.00 0.00 0.00 0.00 0.00 0.00 0.00 0.00 0.00 0.00 0.00 0.00 0.00 0.00 0.00 0.00 0.00 0.00 0.00 0.00 0.00 0.00 0.00 0.00 0.00
0.00 0.00 0.00 0.00 0.00 0.00 0.00 0.00 0.00 0.00 0.01 0.00 0.00 0.00 0.00 0.01 0.00 0.00 0.00 0.00 0.00 0.00 0.00 0.01 0.02 0.00 0.00 0.00 0.00 0.00 0.00 0.00 0.00 0.00 0.00 0.00 0.00 0.00 0.00 0.00 0.00 0.00 0.00 0.00
0.00 0.00 0.00 0.00 0.00 0.00 0.00 0.00 0.00 0.00 0.00 0.01 0.01 0.00 0.00 0.00 0.00 0.00 0.00 0.00 0.01 0.04 0.02 0.00 0.01 0.00 0.00 0.00 0.00 0.00 0.00 0.00 0.00 0.00 0.00 0.00 0.00 0.00 0.00 0.00 0.00 0.00 0.00 0.00
0.00 0.00 0.00 0.00 0.00 0.00 0.00 0.00 0.00 0.01 0.01 0.02 0.04 0.03 0.00 0.00 0.00 0.00 0.00 0.00 0.00 0.03 0.01 0.00 0.00 0.00 0.00 0.00 0.00 0.00 0.00 0.00 0.00 0.00 0.00 0.00 0.00 0.00 0.00 0.00 0.00 0.00 0.00 0.00
0.00 0.00 0.00 0.00 0.00 0.00 0.00 0.00 0.00 0.00 0.01 0.01 0.05 0.01 0.01 0.00 0.00 0.01 0.00 0.00 0.02 0.05 0.00 0.00 0.00 0.00 0.00 0.00 0.00 0.00 0.00 0.00 0.00 0.00 0.00 0.00 0.00 0.00 0.00 0.00 0.00 0.00 0.00 0.00
0.00 0.00 0.00 0.00 0.00 0.00 0.00 0.00 0.00 0.00 0.04 0.04 0.04 0.02 0.03 0.02 0.01 0.01 0.00 0.03 0.06 0.03 0.00 0.00 0.00 0.00 0.00 0.00 0.00 0.00 0.00 0.00 0.00 0.00 0.00 0.00 0.00 0.00 0.00 0.00 0.00 0.00 0.00 0.00
0.00 0.00 0.00 0.00 0.00 0.00 0.00 0.00 0.00 0.00 0.01 0.04 0.02 0.03 0.03 0.02 0.00 0.00 0.00 0.08 0.10 0.01 0.00 0.00 0.00 0.00 0.00 0.00 0.00 0.00 0.00 0.00 0.00 0.00 0.00 0.00 0.00 0.00 0.00 0.00 0.00 0.00 0.00 0.00
0.00 0.00 0.00 0.00 0.00 0.00 0.00 0.00 0.00 0.00 0.00 0.00 0.02 0.04 0.00 0.00 0.00 0.00 0.01 0.03 0.02 0.00 0.01 0.00 0.00 0.00 0.00 0.00 0.00 0.00 0.00 0.00 0.00 0.00 0.00 0.00 0.00 0.00 0.00 0.00 0.00 0.00 0.00 0.00
0.00 0.00 0.00 0.00 0.00 0.00 0.00 0.00 0.00 0.00 0.00 0.01 0.01 0.00 0.00 0.00 0.00 0.00 0.00 0.01 0.01 0.00 0.00 0.00 0.00 0.00 0.00 0.00 0.00 0.00 0.00 0.00 0.00 0.00 0.00 0.00 0.00 0.00 0.00 0.00 0.00 0.00 0.00 0.00
0.00 0.00 0.00 0.00 0.00 0.01 0.01 0.00 0.00 0.00 0.00 0.00 0.00 0.00 0.00 0.00 0.00 0.00 0.00 0.00 0.00 0.00 0.00 0.00 0.00 0.00 0.00 0.00 0.00 0.00 0.00 0.00 0.00 0.00 0.00 0.00 0.00 0.00 0.00 0.00 0.00 0.00 0.01 0.00
0.00 0.00 0.00 0.00 0.00 0.00 0.00 0.01 0.01 0.00 0.00 0.00 0.00 0.00 0.00 0.00 0.00 0.00 0.00 0.00 0.00 0.00 0.00 0.00 0.00 0.00 0.00 0.00 0.00 0.00 0.00 0.00 0.00 0.00 0.00 0.00 0.00 0.00 0.00 0.00 0.00 0.02 0.01 0.00
0.00 0.00 0.00 0.00 0.00 0.00 0.02 0.00 0.00 0.00 0.00 0.00 0.00 0.00 0.00 0.00 0.00 0.00 0.00 0.00 0.00 0.00 0.00 0.00 0.00 0.00 0.00 0.00 0.00 0.00 0.00 0.00 0.00 0.00 0.00 0.00 0.00 0.00 0.00 0.00 0.00 0.01 0.01 0.01
0.00 0.00 0.00 0.00 0.01 0.01 0.00 0.00 0.01 0.09 0.02 0.00 0.00 0.00 0.00 0.00 0.00 0.00 0.00 0.00 0.00 0.00 0.00 0.00 0.00 0.00 0.00 0.00 0.00 0.00 0.00 0.00 0.00 0.00 0.00 0.00 0.00 0.00 0.00 0.00 0.00 0.01 0.02 0.02
0.00 0.00 0.00 0.00 0.02 0.07 0.01 0.00 0.05 0.03 0.00 0.00 0.00 0.00 0.00 0.00 0.00 0.00 0.00 0.00 0.00 0.00 0.00 0.00 0.00 0.00 0.00 0.00 0.00 0.00 0.00 0.00 0.00 0.00 0.00 0.00 0.00 0.00 0.00 0.00 0.00 0.00 0.02 0.02
0.00 0.00 0.01 0.00 0.06 0.02 0.00 0.00 0.00 0.00 0.00 0.00 0.00 0.00 0.00 0.00 0.00 0.00 0.00 0.00 0.00 0.00 0.00 0.00 0.00 0.00 0.00 0.00 0.00 0.00 0.00 0.00 0.00 0.00 0.00 0.00 0.00 0.00 0.00 0.00 0.00 0.00 0.00 0.00
0.00 0.00 0.00 0.01 0.01 0.00 0.00 0.00 0.00 0.00 0.00 0.00 0.00 0.00 0.00 0.00 0.00 0.00 0.00 0.00 0.00 0.00 0.00 0.00 0.00 0.00 0.00 0.00 0.00 0.00 0.00 0.00 0.00 0.00 0.00 0.00 0.00 0.00 0.00 0.00 0.00 0.00 0.00 0.00
0.02 0.03 0.02 0.02 0.00 0.00 0.00 0.00 0.00 0.00 0.00 0.00 0.00 0.00 0.00 0.00 0.00 0.00 0.00 0.00 0.00 0.00 0.00 0.00 0.00 0.00 0.00 0.00 0.00 0.00 0.00 0.00 0.00 0.00 0.00 0.00 0.00 0.00 0.00 0.00 0.00 0.00 0.00 0.00
0.01 0.05 0.09 0.07 0.01 0.01 0.00 0.00 0.00 0.00 0.00 0.00 0.00 0.00 0.00 0.00 0.00 0.00 0.00 0.00 0.00 0.00 0.00 0.00 0.00 0.00 0.00 0.00 0.00 0.00 0.00 0.00 0.00 0.00 0.00 0.00 0.00 0.00 0.00 0.00 0.00 0.00 0.00 0.00
MSLP
1005.33 1004.72 1004.08 1004.73 1006.49 1004.24 1004.17 1003.69 1003.18 1002.60 1003.02 1002.42 1002.37 1002.37 1002.30 1002.54 1003.06 1004.00 1004.68 1005.57 1006.36 1006.75 1008.56 1009.79 1010.66 1011.21 1011.69 1012.24 1012.96 1013.42 1013.69 1014.09 1014.05 1014.17 1014.43 1015.12 1015.71 1016.13 1016.09 1016.23 1016.63 1016.87 1016.91 1016.50
1004.84 1004.23 1004.78 1004.32 1003.93 1004.09 1003.60 1003.16 1002.75 1003.28 1003.42 1002.95 1002.48 1002.10 1002.02 1002.35 1002.28 1003.20 1004.03 1005.39 1006.23 1006.86 1008.74 1009.98 1010.74 1011.21 1011.72 1012.78 1013.30 1013.50 1013.92 1014.21 1013.96 1014.13 1014.56 1015.05 1015.20 1015.63 1015.69 1016.22 1016.53 1016.45 1016.54 1016.63
1003.73 1003.98 1004.86 1003.77 1003.90 1003.75 1003.23 1003.78 1002.77 1002.28 1001.92 1001.68 1001.58 1002.12 1001.50 1003.15 1002.26 1002.74 1003.86 1004.76 1005.89 1006.64 1008.23 1009.68 1010.48 1011.27 1011.93 1012.85 1013.45 1013.65 1014.10 1014.47 1014.49 1014.57 1015.00 1015.13 1015.27 1015.59 1016.20 1016.39 1016.49 1016.65 1016.81 1016.84
1003.28 1003.07 1003.28 1003.56 1003.35 1003.07 1002.51 1002.35 1002.74 1002.08 1001.95 1001.31 1001.53 1001.09 1000.90 1001.13 1001.55 1002.32 1003.28 1004.04 1005.16 1006.39 1007.96 1009.42 1010.35 1011.16 1011.96 1013.01 1013.65 1014.04 1014.41 1014.72 1014.97 1014.92 1014.93 1015.05 1014.98 1015.12 1015.55 1015.62 1016.11 1016.56 1017.21 1017.32
1003.12 1002.75 1002.77 1002.79 1002.63 1002.75 1002.49 1002.46 1002.39 1002.34 1002.27 1002.17 1001.76 1002.28 1000.86 1002.64 1004.34 1003.10 1000.93 1003.89 1004.63 1006.22 1007.57 1009.10 1010.21 1011.14 1012.00 1012.70 1013.79 1014.33 1014.73 1014.89 1015.06 1015.06 1014.91 1014.82 1014.80 1015.14 1015.17 1015.57 1016.56 1017.07 1017.27 1017.55
1003.07 1003.16 1002.86 1002.51 1002.74 1002.80 1002.61 1002.42 1002.37 1002.05 1001.79 1001.53 1002.85 1006.05 1002.70 1003.03 1002.67 1002.06 1002.25 1003.07 1004.36 1005.59 1007.69 1009.41 1010.58 1011.36 1011.93 1012.79 1013.66 1014.03 1014.56 1014.76 1014.90 1014.98 1015.29 1015.53 1015.65 1015.81 1015.68 1016.08 1016.34 1016.20 1016.49 1016.71
1002.45 1001.90 1001.58 1002.06 1002.42 1002.08 1001.92 1002.21 1001.82 1000.98 1001.02 1001.17 1002.15 1004.24 1001.33 1001.32 1001.85 1002.07 1002.43 1003.26 1004.65 1005.95 1008.10 1009.54 1010.43 1011.02 1011.43 1011.80 1013.06 1013.70 1014.01 1014.55 1014.78 1015.24 1015.51 1015.86 1016.24 1016.45 1016.58 1016.81 1016.36 1016.98 1016.50 1016.62
1002.24 1001.61 1001.76 1002.91 1002.65 1002.50 1002.57 1002.65 1002.15 1001.79 1001.87 1001.53 1001.29 1001.59 1002.34 1002.33 1003.03 1002.91 1002.66 1003.75 1004.78 1006.61 1008.00 1009.02 1009.99 1010.57 1010.67 1011.49 1012.21 1012.68 1013.47 1014.26 1014.77 1015.19 1015.55 1015.99 1016.36 1015.88 1016.19 1016.87 1017.17 1016.84 1016.97 1016.99
1002.99 1002.23 1002.16 1002.29 1002.44 1003.16 1002.72 1002.62 1002.40 1002.79 1002.85 1002.52 1002.36 1002.24 1002.83 1003.22 1003.73 1003.60 1003.71 1003.94 1005.20 1006.65 1007.56 1008.85 1009.96 1010.21 1010.52 1011.49 1012.20 1012.76 1013.42 1014.27 1014.72 1015.02 1015.49 1016.06 1016.28 1016.61 1016.86 1017.25 1017.42 1016.91 1017.20 1017.26
1004.30 1003.65 1003.27 1003.11 1002.74 1002.90 1002.76 1003.13 1003.27 1003.55 1005.19 1005.77 1003.71 1003.01 1003.28 1004.97 1004.79 1003.34 1003.74 1004.41 1005.68 1006.60 1007.83 1009.30 1010.04 1010.14 1010.95 1011.53 1012.32 1012.91 1013.54 1013.96 1014.37 1014.77 1015.15 1015.46 1016.08 1016.57 1016.93 1017.20 1017.33 1017.32 1017.35 1017.22
1005.04 1004.78 1004.13 1003.48 1002.57 1002.06 1002.44 1003.23 1004.92 1006.20 1007.95 1007.69 1006.03 1005.12 1005.81 1005.68 1004.28 1003.81 1003.85 1004.32 1005.87 1007.13 1008.22 1009.33 1009.44 1010.22 1010.95 1011.42 1012.23 1013.13 1013.50 1013.92 1014.28 1014.66 1014.96 1015.53 1015.90 1016.26 1016.70 1016.95 1017.05 1017.04 1017.07 1016.96
1005.84 1006.19 1005.07 1004.00 1003.25 1002.84 1003.42 1004.10 1004.77 1005.93 1007.01 1006.72 1007.42 1007.85 1007.36 1006.81 1005.74 1004.54 1004.31 1004.88 1005.59 1006.94 1008.25 1008.35 1009.10 1010.07 1010.64 1011.03 1011.63 1012.66 1013.26 1013.54 1013.78 1014.12 1014.58 1015.17 1015.80 1016.32 1016.58 1016.69 1016.67 1016.63 1016.56 1016.55
1007.15 1006.63 1005.44 1003.88 1002.66 1003.28 1004.15 1004.59 1005.31 1006.66 1007.74 1008.22 1008.42 1007.38 1008.02 1008.02 1007.74 1007.79 1005.61 1004.94 1005.03 1006.60 1007.63 1008.38 1009.21 1010.06 1010.71 1010.89 1011.57 1012.18 1012.94 1013.33 1013.62 1013.83 1014.17 1014.75 1015.53 1016.14 1016.30 1016.39 1016.36 1016.31 1016.19 1016.07
1008.78 1007.73 1006.75 1005.33 1004.44 1004.38 1004.51 1004.92 1005.50 1007.02 1008.13 1008.34 1008.48 1008.72 1009.66 1009.81 1009.64 1008.71 1007.68 1008.10 1007.93 1007.35 1007.89 1009.01 1009.50 1010.00 1010.55 1011.36 1011.88 1012.32 1012.83 1013.16 1013.41 1013.78 1014.21 1014.78 1015.38 1015.67 1015.88 1016.01 1016.04 1015.93 1015.78 1015.58
1008.62 1007.77 1006.80 1005.69 1005.27 1005.24 1005.28 1005.64 1006.69 1007.43 1007.92 1009.44 1009.97 1010.77 1010.86 1010.81 1009.62 1009.44 1009.65 1010.16 1010.59 1009.98 1009.45 1010.30 1010.45 1010.25 1010.45 1011.13 1011.99 1012.49 1012.70 1013.00 1013.34 1013.92 1014.40 1014.75 1015.04 1015.18 1015.35 1015.46 1015.50 1015.46 1015.34 1015.13
1008.40 1007.96 1007.08 1006.30 1005.35 1005.39 1005.82 1007.03 1007.82 1008.04 1009.09 1009.13 1010.28 1011.67 1011.33 1011.62 1011.31 1011.60 1012.00 1012.39 1013.18 1012.48 1011.93 1011.75 1011.26 1010.51 1010.48 1011.04 1011.52 1011.91 1012.58 1013.27 1013.71 1014.07 1014.18 1014.22 1014.46 1014.65 1014.76 1014.85 1014.84 1014.76 1014.61 1014.47
1008.26 1007.90 1007.50 1005.98 1005.32 1005.81 1006.38 1007.64 1008.40 1009.15 1009.70 1010.15 1010.37 1012.23 1012.42 1013.18 1013.35 1013.51 1013.40 1013.53 1013.67 1013.13 1012.33 1011.74 1010.33 1010.28 1010.89 1011.29 1011.96 1012.67 1013.05 1013.30 1013.50 1013.66 1013.79 1013.81 1013.92 1014.03 1013.96 1013.92 1013.92 1013.86 1013.79 1013.81
1008.15 1008.07 1007.58 1006.44 1005.88 1005.89 1007.31 1008.16 1008.93 1009.38 1010.16 1011.09 1011.94 1012.81 1013.62 1013.94 1014.04 1013.87 1013.77 1012.71 1012.19 1011.46 1010.81 1010.61 1010.56 1011.21 1011.69 1012.32 1012.58 1012.89 1012.96 1013.06 1013.26 1013.47 1013.64 1013.71 1013.86 1013.91 1013.78 1013.59 1013.54 1013.35 1013.35 1013.28
1008.51 1008.25 1007.09 1006.60 1005.58 1005.51 1007.00 1008.10 1008.76 1009.38 1009.58 1010.49 1011.21 1012.08 1012.62 1012.93 1013.16 1012.52 1012.00 1011.60 1011.47 1011.45 1011.42 1011.42 1011.47 1011.75 1012.36 1012.93 1013.29 1013.23 1013.22 1013.25 1013.38 1013.40 1013.44 1013.52 1013.50 1013.53 1013.50 1013.43 1013.26 1013.14 1013.11 1012.90
1008.21 1008.49 1008.05 1006.63 1006.05 1005.22 1006.67 1007.52 1008.02 1008.47 1009.33 1009.88 1010.34 1010.80 1010.85 1011.13 1011.05 1010.66 1011.16 1011.26 1011.50 1011.83 1012.08 1012.02 1012.12 1012.99 1013.77 1014.30 1014.08 1013.77 1013.90 1014.24 1014.71 1014.90 1014.60 1014.09 1013.75 1013.66 1013.54 1013.19 1012.89 1012.63 1012.39 1012.02
1007.17 1007.42 1006.68 1006.18 1005.96 1006.12 1006.53 1007.26 1007.92 1008.50 1008.85 1009.00 1009.16 1009.16 1009.34 1009.92 1010.41 1010.87 1011.21 1011.77 1012.26 1012.55 1012.78 1012.73 1014.22 1015.14 1015.77 1015.67 1015.42 1015.53 1016.00 1016.25 1016.29 1015.93 1015.36 1015.11 1015.04 1014.74 1014.12 1013.86 1013.43 1013.11 1012.51 1012.02
1006.33 1005.98 1005.57 1005.74 1005.94 1006.23 1006.87 1007.29 1007.55 1008.27 1008.27 1008.26 1008.43 1008.69 1009.25 1009.96 1010.52 1011.40 1012.35 1012.97 1013.40 1013.88 1013.88 1014.75 1015.53 1016.33 1016.72 1016.78 1016.61 1016.82 1017.25 1017.38 1017.02 1016.61 1016.23 1015.97 1015.67 1015.18 1014.82 1014.54 1013.91 1013.79 1013.59 1012.90
1006.29 1006.21 1006.66 1006.54 1006.69 1007.24 1007.12 1007.17 1007.60 1007.93 1008.08 1008.29 1008.49 1008.91 1009.42 1010.30 1011.15 1012.28 1013.34 1014.09 1014.69 1015.03 1015.24 1015.57 1015.91 1016.55 1017.09 1017.44 1017.69 1017.66 1017.92 1017.83 1017.38 1016.86 1016.49 1015.99 1015.68 1015.34 1015.21 1014.62 1014.19 1013.90 1013.76 1013.57
1006.28 1006.19 1006.44 1006.46 1006.37 1006.31 1006.45 1006.88 1007.41 1008.00 1008.01 1008.50 1008.78 1009.36 1010.01 1010.89 1012.30 1013.30 1014.08 1014.86 1015.39 1015.72 1015.94 1016.30 1016.59 1017.06 1017.69 1018.10 1018.37 1018.58 1018.63 1018.50 1017.93 1017.46 1016.89 1016.22 1015.94 1015.69 1015.00 1014.76 1013.85 1013.84 1014.05 1013.90
1006.00 1007.19 1006.93 1006.79 1006.49 1005.89 1006.34 1006.53 1007.41 1008.23 1008.71 1009.28 1009.71 1010.28 1011.07 1012.34 1013.40 1013.99 1014.95 1015.61 1015.92 1016.24 1016.69 1017.19 1017.62 1017.92 1018.31 1018.66 1018.78 1018.95 1018.97 1018.81 1018.35 1017.93 1017.20 1016.73 1016.34 1015.89 1015.42 1014.78 1014.71 1014.65 1014.43 1015.08
1007.11 1008.17 1009.32 1008.31 1008.14 1006.56 1006.21 1006.55 1007.93 1009.03 1009.93 1010.94 1011.58 1012.07 1013.18 1013.47 1014.12 1014.81 1015.40 1016.07 1016.45 1016.94 1017.37 1017.84 1018.32 1018.59 1018.69 1018.97 1019.23 1019.43 1019.45 1019.23 1018.74 1018.24 1017.52 1017.34 1016.97 1015.99 1015.37 1015.20 1014.98 1014.64 1014.78 1014.97
Thickness
5803 5793 5787 5788 5760 5803 5799 5801 5802 5816 5817 5813 5807 5806 5814 5820 5811 5799 5795 5789 5785 5782 5777 5770 5763 5760 5755 5749 5741 5735 5731 5727 5726 5722 5716 5707 5698 5694 5693 5688 5682 5677 5673 5672
5794 5786 5795 5814 5817 5804 5805 5800 5801 5800 5806 5801 5801 5799 5813 5813 5813 5805 5797 5785 5780 5778 5766 5759 5755 5753 5749 5738 5733 5731 5726 5722 5722 5719 5712 5706 5702 5695 5691 5684 5678 5675 5671 5667
5794 5797 5802 5810 5800 5792 5798 5778 5794 5799 5816 5821 5808 5785 5800 5790 5804 5806 5797 5790 5782 5773 5762 5753 5750 5745 5742 5731 5725 5724 5720 5716 5713 5711 5705 5701 5697 5690 5681 5676 5674 5669 5664 5662
5807 5822 5810 5798 5793 5804 5787 5816 5801 5803 5794 5779 5813 5766 5806 5813 5799 5795 5789 5784 5779 5771 5761 5751 5745 5739 5734 5725 5720 5716 5713 5709 5705 5704 5700 5695 5691 5685 5682 5679 5673 5667 5657 5654
5796 5808 5803 5795 5802 5809 5793 5813 5802 5797 5784 5784 5792 5768 5801 5762 5732 5765 5775 5779 5778 5767 5759 5747 5741 5735 5730 5725 5714 5709 5705 5703 5700 5698 5696 5693 5689 5684 5682 5676 5665 5658 5654 5647
5804 5820 5811 5807 5808 5806 5810 5799 5795 5796 5791 5765 5747 5694 5759 5736 5767 5785 5792 5781 5777 5767 5752 5740 5734 5729 5725 5720 5711 5706 5700 5697 5696 5694 5689 5683 5679 5673 5672 5665 5661 5660 5656 5652
5801 5810 5829 5822 5793 5811 5805 5785 5758 5763 5766 5753 5783 5733 5783 5794 5790 5787 5784 5774 5771 5760 5742 5732 5727 5723 5722 5720 5709 5703 5700 5692 5692 5687 5682 5677 5670 5665 5660 5655 5656 5647 5649 5645
5780 5778 5802 5802 5793 5782 5783 5781 5763 5730 5741 5762 5798 5768 5768 5783 5780 5781 5783 5770 5763 5747 5739 5733 5727 5722 5723 5716 5711 5707 5699 5690 5686 5681 5676 5671 5665 5667 5661 5652 5646 5645 5640 5636
5772 5777 5810 5810 5805 5790 5776 5766 5796 5761 5772 5759 5768 5777 5780 5770 5758 5766 5764 5762 5751 5742 5737 5729 5722 5721 5720 5712 5706 5700 5694 5684 5680 5677 5671 5664 5660 5654 5649 5644 5639 5640 5634 5629
5775 5751 5787 5791 5800 5794 5780 5788 5753 5763 5696 5678 5745 5753 5752 5729 5712 5757 5758 5752 5743 5739 5733 5720 5715 5716 5711 5709 5702 5695 5688 5682 5677 5672 5668 5664 5656 5649 5643 5637 5632 5629 5625 5624
5777 5763 5762 5781 5778 5778 5777 5763 5740 5735 5692 5672 5699 5724 5746 5734 5750 5755 5756 5756 5738 5726 5724 5714 5718 5714 5708 5704 5696 5686 5682 5676 5670 5666 5662 5655 5651 5645 5638 5633 5628 5625 5621 5619
5772 5751 5737 5755 5783 5790 5774 5756 5752 5717 5702 5728 5695 5688 5724 5714 5740 5754 5754 5749 5742 5734 5723 5723 5717 5710 5705 5701 5695 5685 5678 5673 5669 5665 5658 5651 5644 5637 5631 5627 5625 5623 5620 5616
5759 5745 5729 5747 5776 5775 5750 5754 5748 5730 5716 5695 5686 5714 5718 5717 5713 5701 5738 5750 5732 5722 5724 5717 5711 5703 5697 5695 5687 5680 5673 5668 5664 5660 5654 5646 5637 5629 5625 5622 5619 5617 5616 5613
5739 5736 5727 5722 5738 5753 5739 5743 5742 5719 5682 5695 5703 5699 5690 5686 5681 5673 5720 5715 5687 5709 5714 5705 5701 5697 5693 5687 5680 5675 5668 5665 5659 5653 5646 5638 5631 5626 5621 5616 5613 5611 5610 5608
5738 5722 5737 5746 5747 5743 5737 5733 5720 5708 5711 5675 5681 5665 5672 5682 5702 5703 5706 5697 5670 5675 5690 5680 5686 5688 5688 5683 5673 5668 5664 5660 5653 5644 5637 5631 5626 5623 5618 5612 5609 5606 5604 5603
5739 5718 5731 5725 5743 5739 5725 5713 5707 5710 5695 5704 5683 5661 5684 5686 5688 5682 5677 5670 5652 5641 5658 5659 5671 5682 5682 5676 5671 5667 5658 5650 5643 5635 5631 5629 5624 5618 5613 5608 5605 5603 5601 5599
5724 5722 5713 5714 5739 5728 5705 5702 5698 5692 5693 5687 5679 5665 5670 5663 5660 5655 5660 5658 5649 5657 5665 5667 5684 5686 5678 5673 5665 5654 5649 5645 5639 5634 5629 5626 5620 5614 5611 5608 5603 5600 5598 5595
5719 5715 5716 5711 5723 5686 5705 5713 5701 5690 5684 5676 5665 5654 5643 5640 5644 5645 5648 5662 5666 5677 5681 5680 5680 5673 5668 5660 5656 5650 5646 5642 5636 5630 5624 5620 5613 5607 5604 5601 5597 5597 5594 5590
5722 5712 5712 5703 5714 5719 5706 5700 5691 5679 5681 5683 5672 5663 5661 5659 5656 5662 5672 5676 5673 5672 5672 5671 5670 5667 5660 5651 5646 5644 5640 5636 5630 5625 5620 5615 5610 5604 5600 5596 5593 5591 5587 5585
5718 5712 5702 5709 5695 5697 5700 5708 5712 5702 5659 5686 5681 5674 5675 5674 5657 5670 5674 5673 5669 5667 5663 5662 5661 5652 5643 5636 5636 5634 5629 5621 5611 5605 5603 5603 5601 5597 5594 5593 5591 5590 5588 5587
5706 5703 5704 5706 5699 5700 5715 5711 5708 5661 5668 5690 5690 5688 5685 5672 5673 5673 5673 5665 5661 5658 5654 5655 5638 5627 5619 5619 5619 5612 5603 5596 5592 5590 5591 5588 5584 5581 5582 5580 5579 5578 5581 5581
5707 5708 5711 5709 5694 5680 5715 5704 5683 5687 5696 5695 5693 5691 5682 5678 5674 5666 5657 5650 5646 5640 5640 5630 5620 5611 5607 5604 5602 5595 5585 5580 5579 5577 5575 5573 5570 5570 5567 5565 5566 5563 5561 5564
5699 5713 5697 5702 5689 5705 5710 5703 5703 5700 5693 5691 5688 5685 5680 5671 5664 5656 5644 5636 5630 5625 5621 5618 5612 5604 5597 5590 5584 5580 5573 5570 5569 5568 5565 5564 5562 5559 5554 5555 5553 5552 5548 5546
5712 5721 5702 5703 5707 5708 5709 5708 5702 5696 5693 5689 5686 5679 5672 5661 5650 5640 5633 5624 5619 5614 5610 5605 5599 5592 5583 5575 5570 5564 5560 5556 5555 5553 5552 5553 5548 5544 5545 5542 5545 5541 5534 5536
5711 5700 5694 5698 5705 5710 5701 5703 5695 5688 5685 5679 5674 5667 5657 5644 5635 5629 5619 5613 5610 5605 5598 5591 5582 5576 5569 5562 5558 5551 5546 5541 5539 5536 5536 5534 5531 5528 5527 5527 5523 5518 5516 5509
5698 5672 5642 5658 5668 5661 5691 5700 5687 5674 5665 5655 5647 5641 5633 5631 5623 5618 5611 5604 5598 5590 5583 5575 5567 5560 5555 5548 5541 5533 5527 5523 5521 5518 5518 5512 5509 5512 5511 5507 5504 5500 5494 5489